#timestamp,LO_Frequency,Hit,StdDev 
1512057615.2,286047000.1,N
1512057635.0,286047000.6,N
1512057635.9,286047000.6,N
1512057655.8,286047000.9,N
1512057675.6,286047001.2,N
1512057695.5,286046998.2,N
1512057715.3,286047000.6,N
1512057735.1,286046999.0,N
1512057755.9,286046998.2,N
1512057775.7,286046998.3,N
1512057795.5,286047000.6,N
1512057815.4,286047000.6,N
1512057835.2,286047000.0,N
1512057855.1,286047000.1,N
1512057856.0,286047000.1,N
1512057875.8,286047004.3,Y
1512057895.6,286047001.4,P
1512057915.5,286047002.0,P
1512057935.3,286047002.1,N
1512057955.2,286047002.5,Y
1512057975.9,286047000.7,P
1512057995.7,286047001.0,N
1512058015.6,286047000.1,N
1512058035.4,286047002.3,Y
1512058055.3,286047000.4,P
1512058075.1,286047001.1,P
1512058076.0,286047001.1,P
1512058095.8,286047000.3,N
1512058115.7,286047001.0,N
1512058135.5,286047000.6,N
1512058155.4,286047000.8,N
1512058175.2,286047000.5,N
1512058195.0,286047000.0,N
1512058195.9,286047000.0,N
1512058215.8,286046998.1,Y
1512058235.6,286047000.8,P
1512058255.4,286046998.7,P
1512058275.3,286046999.6,N
1512058295.1,286046999.1,N
1512058315.9,286046999.3,N
1512058335.7,286046998.3,N
1512058355.5,286046999.6,N
1512058375.4,286046999.2,N
1512058395.2,286046996.8,Y
1512058415.0,286046997.0,P
1512058416.0,286046997.0,N
1512058435.8,286046997.6,N
1512058455.6,286046998.3,N
1512058475.5,286046999.3,N
1512058495.3,286046998.7,N
1512058515.1,286046999.1,N
1512058535.9,286046998.3,N
1512058555.7,286046998.5,N
1512058575.6,286046998.3,N
1512058595.4,286047000.8,N
1512058615.2,286047001.0,N
1512058635.1,286047002.7,N
1512058636.0,286047002.7,N
1512058655.8,286047002.3,N
1512058675.7,286046999.7,N
1512058695.5,286046999.9,N
1512058715.3,286047000.4,N
1512058735.2,286047001.2,N
1512058755.0,286047000.8,N
1512058755.9,286047000.8,N
1512058775.7,286046998.7,N
1512058795.6,286047001.2,N
1512058815.4,286046998.2,N
1512058835.3,286046998.6,N
1512058855.1,286047001.0,N
1512058856.0,286047001.0,N
1512058875.8,286046998.2,N
1512058895.7,286047000.4,N
1512058915.5,286046998.7,N
1512058935.3,286046998.1,N
1512058955.2,286047000.6,N
1512058975.0,286046998.4,N
1512058975.9,286046998.4,N
1512058995.8,286046999.3,N
1512059015.6,286046999.1,N
1512059035.4,286046998.9,N
1512059055.3,286046997.4,N
1512059075.1,286046999.4,N
1512059095.9,286046998.7,N
1512059115.7,286046998.6,N
1512059135.5,286047000.0,N
1512059155.4,286047000.4,N
1512059175.2,286047001.1,N
1512059195.0,286047000.6,N
1512059195.9,286047000.6,N
1512059215.8,286047001.0,N
1512059235.6,286047001.1,N
1512059255.5,286046998.9,N
1512059275.3,286046998.1,N
1512059295.1,286046998.3,N
1512059315.9,286046999.1,N
1512059335.7,286046997.7,N
1512059355.5,286046998.7,N
1512059375.4,286046998.6,N
1512059395.2,286046998.9,N
1512059415.1,286046998.5,N
1512059416.0,286046998.5,N
1512059435.8,286046998.8,N
1512059455.6,286046998.4,N
1512059475.5,286046998.3,N
1512059495.3,286046999.0,N
1512059515.1,286046998.4,N
1512059535.9,286046999.6,N
1512059555.7,286046998.2,N
1512059575.6,286046998.6,N
1512059595.4,286046998.5,N
1512059615.2,286046998.6,N
1512059635.1,286046998.1,N
1512059636.0,286046998.1,N
1512059655.8,286046998.7,N
1512059675.7,286046997.2,N
1512059695.5,286046999.2,N
1512059715.3,286046999.1,N
1512059735.2,286046999.6,N
1512059755.0,286047001.2,N
1512059755.9,286047001.2,N
1512059775.8,286047000.3,N
1512059795.6,286047000.6,N
1512059815.4,286047001.0,N
1512059835.3,286046998.6,N
1512059855.1,286047002.7,N
1512059875.8,286047002.5,N
1512059895.7,286047001.4,N
1512059915.5,286047002.1,N
1512059935.4,286047002.8,N
1512059955.2,286047000.2,N
1512059975.0,286047002.8,N
1512059975.9,286047002.8,N
1512059995.8,286047002.5,N
1512060015.6,286047000.5,N
1512060035.5,286047002.5,N
1512060055.3,286046999.7,N
1512060075.1,286047000.1,N
1512060095.9,286047001.0,N
1512060115.7,286047000.2,N
1512060135.6,286047002.5,N
1512060155.4,286047002.4,N
1512060175.2,286047002.7,N
1512060195.1,286047000.2,N
1512060196.0,286047000.2,N
1512060215.8,286047000.7,N
1512060235.6,286047002.2,N
1512060255.5,286047002.5,N
1512060275.3,286047001.9,N
1512060295.2,286047002.7,N
1512060315.9,286047001.6,N
1512060335.7,286047002.3,N
1512060355.6,286047001.9,N
1512060375.4,286047002.6,N
1512060395.2,286047002.5,N
1512060415.1,286047000.4,N
1512060416.0,286047000.4,N
1512060435.8,286047002.4,N
1512060455.7,286047002.4,N
1512060475.5,286047002.1,N
1512060495.3,286047002.4,N
1512060515.2,286047002.6,N
1512060535.0,286047000.0,N
1512060535.9,286047000.0,N
1512060555.7,286047001.1,N
1512060575.6,286047000.0,N
1512060595.4,286047000.6,N
1512060615.3,286046999.9,N
1512060635.1,286047000.7,N
1512060636.0,286047000.7,N
1512060655.8,286047001.1,N
1512060675.7,286047001.1,N
1512060695.5,286046998.7,N
1512060715.3,286046998.7,N
1512060735.2,286047000.9,N
1512060755.0,286047000.7,N
1512060755.9,286047000.7,N
1512060775.8,286046998.2,N
1512060795.6,286047001.0,N
1512060815.4,286046998.9,N
1512060835.3,286047000.7,N
1512060855.1,286047000.9,N
1512060875.9,286047002.6,N
1512060895.7,286047000.2,N
1512060915.5,286047002.7,N
1512060935.4,286047004.3,Y
1512060955.2,286047001.6,P
1512060975.1,286047002.4,P
1512060976.0,286047002.4,P
1512060995.8,286047002.8,Y
1512061015.6,286046998.5,P
1512061035.5,286046999.0,N
1512061055.3,286046998.2,N
1512061075.1,286046998.6,N
1512061095.9,286046999.1,N
1512061115.7,286046997.1,N
1512061135.6,286046996.6,N
1512061155.4,286046996.6,N
1512061175.2,286046996.5,N
1512061195.1,286046996.5,N
1512061196.0,286046996.5,N
